Location: Albany
(35.0170°S, 117.8920°E)
Time: 03:51:42
(UTC+08:00)

Vanguard 1 - Pass Details

Date: 26 January 2021
Orbit: 649 x 3833 km, 34.2° (Epoch: 26 February)

Event Time Altitude Azimuth Distance (km) Brightness Sun altitude
Rises 07:01:30 0° 268° (W) 3,090 12.0 18.7°
Reaches altitude 10° 07:03:56 10° 283° (WNW) 2,319 11.5 19.2°
Maximum altitude 07:08:13 25° 338° (NNW) 1,838 11.3 20.1°
Drops below altitude 10° 07:14:15 10° 29° (NNE) 3,362 13.2 21.3°
Sets 07:18:41 0° 41° (NE) 4,878 14.1 22.2°
